Location: Hopville
(44.8032°N, 123.1329°W)
Time: 04:47:26
(UTC+00:00)

NOAA 11 - Pass Details

Date: 24 January 2021
Orbit: 832 x 850 km, 98.4° (Epoch: 26 February)

Event Time Altitude Azimuth Distance (km) Brightness Sun altitude
Rises 15:01:40 0° 12° (NNE) 3,411 7.3 -7.0°
Reaches altitude 10° 15:04:03 10° 10° (N) 2,469 6.5 -6.6°
Maximum altitude 15:09:30 75° 287° (WNW) 870 4.2 -5.7°
Drops below altitude 10° 15:14:55 10° 202° (SSW) 2,441 6.6 -4.8°
Sets 15:17:15 0° 201° (SSW) 3,369 7.4 -4.5°
